Weather History for Roxboro, NC

Change the Weather History Date:

Thursday, October 20, 2011

  Actual Average Record
Temperature  
Mean Temperature 52 °F -  
Max Temperature 60 °F 67 °F 89 °F (2005)
Min Temperature 44 °F 42 °F 23 °F (1992)
Degree Days  
Heating Degree Days 13    
Growing Degree Days 2 (Base 50)    
Moisture  
Dew Point 42 °F    
Average Humidity 67    
Maximum Humidity 93    
Minimum Humidity 39    
Precipitation  
Precipitation 0.00 in - - ()
Sea Level Pressure  
Sea Level Pressure 29.65 in    
Wind  
Wind Speed 12 mph (SW)    
Max Wind Speed 18 mph    
Max Gust Speed 28 mph    
Visibility 10 miles    
Events      
Averages and records for this station are not official NWS values.
T = Trace of Precipitation, MM = Missing Value Source: NWS Daily Summary

Daily Weather History Graph

Daily Weather History Graph

Search for Another Location

Airport:

Trip Planner

Search our weather history database for the weather conditions in past years. The results will help you decide how hot, cold, wet, or windy it might be!

Date:

Astronomy

Oct. 20, 2011 Rise Set
Actual Time 7:27 AM EDT 6:33 PM EDT
Civil Twilight 7:01 AM EDT 6:59 PM EDT
Nautical Twilight 6:31 AM EDT 7:29 PM EDT
Astronomical Twilight 6:01 AM EDT 7:59 PM EDT
Moon 12:22 AM EDT 2:30 PM EDT
Length of Visible Light 11h 58m
Length of Day
11h 06m
Last Quarter, 44% of the Moon is Illuminated
Oct 20
Last Quarter
Oct 26
New
Nov 2
First Quarter
Nov 10
Full
Nov 18
Last Quarter

Hourly Weather History & Observations

Time (EDT) Temp. Windchill Dew Point Humidity Pressure Visibility Wind Dir Wind Speed Gust Speed Precip Events Conditions
12:15 AM 55.4 °F - 48.2 °F 77% 29.46 in 10.0 mi SW 13.8 mph 21.9 mph N/A   Overcast
12:35 AM 55.4 °F - 48.2 °F 77% 29.46 in 10.0 mi SW 15.0 mph 21.9 mph N/A   Overcast
12:55 AM 55.4 °F - 46.4 °F 72% 29.47 in 10.0 mi SW 16.1 mph 23.0 mph N/A   Overcast
1:15 AM 55.4 °F - 46.4 °F 72% 29.48 in 10.0 mi SW 13.8 mph 24.2 mph N/A   Overcast
1:35 AM 55.4 °F - 46.4 °F 72% 29.50 in 10.0 mi SW 16.1 mph 24.2 mph N/A   Overcast
1:55 AM 53.6 °F - 46.4 °F 77% 29.50 in 10.0 mi WSW 10.4 mph 17.3 mph N/A   Overcast
2:15 AM 53.6 °F - 46.4 °F 77% 29.51 in 10.0 mi SW 11.5 mph 17.3 mph N/A   Overcast
2:35 AM 53.6 °F - 46.4 °F 77% 29.52 in 10.0 mi WSW 11.5 mph 19.6 mph N/A   Overcast
2:55 AM 53.6 °F - 46.4 °F 77% 29.53 in 10.0 mi SW 10.4 mph 17.3 mph N/A   Mostly Cloudy
3:15 AM 51.8 °F - 44.6 °F 76% 29.53 in 10.0 mi WSW 8.1 mph - N/A   Scattered Clouds
3:35 AM 51.8 °F - 44.6 °F 76% 29.54 in 10.0 mi SW 8.1 mph - N/A   Scattered Clouds
3:55 AM 50.0 °F - 44.6 °F 82% 29.55 in 10.0 mi SW 9.2 mph - N/A   Scattered Clouds
4:15 AM 48.2 °F - 44.6 °F 87% 29.56 in 10.0 mi SW 8.1 mph - N/A   Scattered Clouds
4:35 AM 48.2 °F - 44.6 °F 87% 29.56 in 10.0 mi SW 6.9 mph - N/A   Clear
4:55 AM 48.2 °F - 44.6 °F 87% 29.57 in 10.0 mi SW 11.5 mph - N/A   Clear
5:15 AM 48.2 °F - 42.8 °F 82% 29.59 in 10.0 mi SW 9.2 mph - N/A   Clear
5:35 AM 48.2 °F - 42.8 °F 82% 29.60 in 10.0 mi SW 9.2 mph - N/A   Clear
5:55 AM 46.4 °F 42.4 °F 42.8 °F 87% 29.61 in 10.0 mi SW 8.1 mph - N/A   Clear
6:15 AM 46.4 °F 42.4 °F 42.8 °F 87% 29.62 in 10.0 mi SW 8.1 mph - N/A   Clear
6:35 AM 46.4 °F 41.9 °F 42.8 °F 87% 29.62 in 10.0 mi SW 9.2 mph - N/A   Clear
6:55 AM 46.4 °F 41.9 °F 42.8 °F 87% 29.63 in 10.0 mi SSW 9.2 mph - N/A   Clear
7:15 AM 46.4 °F 42.4 °F 42.8 °F 87% 29.64 in 10.0 mi SW 8.1 mph - N/A   Clear
7:35 AM 44.6 °F 39.2 °F 42.8 °F 93% 29.65 in 10.0 mi SW 10.4 mph - N/A   Clear
7:55 AM 46.4 °F 41.1 °F 42.8 °F 87% 29.66 in 10.0 mi SW 11.5 mph - N/A   Clear
8:15 AM 46.4 °F 42.4 °F 42.8 °F 87% 29.67 in 10.0 mi SW 8.1 mph - N/A   Clear
8:35 AM 46.4 °F 41.9 °F 42.8 °F 87% 29.68 in 10.0 mi SW 9.2 mph - N/A   Clear
8:55 AM 48.2 °F - 42.8 °F 82% 29.69 in 10.0 mi SW 10.4 mph 17.3 mph N/A   Clear
9:15 AM 48.2 °F - 42.8 °F 82% 29.70 in 10.0 mi SW 10.4 mph 17.3 mph N/A   Clear
9:35 AM 50.0 °F - 42.8 °F 76% 29.71 in 10.0 mi SW 11.5 mph 21.9 mph N/A   Clear
9:55 AM 51.8 °F - 42.8 °F 71% 29.72 in 10.0 mi SW 9.2 mph 17.3 mph N/A   Clear
10:15 AM 53.6 °F - 42.8 °F 67% 29.72 in 10.0 mi WSW 15.0 mph 19.6 mph N/A   Clear
10:35 AM 53.6 °F - 42.8 °F 67% 29.72 in 10.0 mi WSW 9.2 mph 18.4 mph N/A   Clear
10:55 AM 55.4 °F - 41.0 °F 58% 29.72 in 10.0 mi SW 10.4 mph 17.3 mph N/A   Clear
11:15 AM 55.4 °F - 41.0 °F 58% 29.72 in 10.0 mi WSW 12.7 mph 19.6 mph N/A   Clear
11:35 AM 57.2 °F - 39.2 °F 51% 29.72 in 10.0 mi WSW 17.3 mph 20.7 mph N/A   Clear
11:55 AM 57.2 °F - 41.0 °F 55% 29.72 in 10.0 mi SW 10.4 mph 16.1 mph N/A   Scattered Clouds
12:15 PM 57.2 °F - 37.4 °F 48% 29.72 in 10.0 mi SW 17.3 mph 21.9 mph N/A   Scattered Clouds
12:35 PM 59.0 °F - 37.4 °F 45% 29.72 in 10.0 mi SW 13.8 mph 27.6 mph N/A   Mostly Cloudy
12:55 PM 59.0 °F - 37.4 °F 45% 29.72 in 10.0 mi WSW 18.4 mph 26.5 mph N/A   Mostly Cloudy
1:15 PM 57.2 °F - 37.4 °F 48% 29.73 in 10.0 mi SW 12.7 mph 23.0 mph N/A   Mostly Cloudy
1:35 PM 57.2 °F - 35.6 °F 44% 29.73 in 10.0 mi WSW 16.1 mph 23.0 mph N/A   Overcast
1:55 PM 57.2 °F - 37.4 °F 48% 29.74 in 10.0 mi WSW 12.7 mph 20.7 mph N/A   Mostly Cloudy
2:15 PM 59.0 °F - 37.4 °F 45% 29.74 in 10.0 mi SW 18.4 mph 24.2 mph N/A   Mostly Cloudy
2:35 PM 57.2 °F - 39.2 °F 51% 29.74 in 10.0 mi SW 15.0 mph 24.2 mph N/A   Mostly Cloudy
2:55 PM 59.0 °F - 39.2 °F 48% 29.74 in 10.0 mi SW 12.7 mph 19.6 mph N/A   Mostly Cloudy
3:15 PM 60.8 °F - 37.4 °F 42% 29.74 in 10.0 mi WSW 8.1 mph 19.6 mph N/A   Mostly Cloudy
3:35 PM 60.8 °F - 35.6 °F 39% 29.75 in 10.0 mi WSW 10.4 mph 23.0 mph N/A   Mostly Cloudy
3:55 PM 60.8 °F - 37.4 °F 42% 29.76 in 10.0 mi WSW 10.4 mph 20.7 mph N/A   Overcast
4:15 PM 59.0 °F - 37.4 °F 45% 29.76 in 10.0 mi WSW 8.1 mph - N/A   Overcast
4:35 PM 59.0 °F - 35.6 °F 42% 29.77 in 10.0 mi WSW 11.5 mph - N/A   Overcast
4:55 PM 60.8 °F - 35.6 °F 39% 29.77 in 10.0 mi WSW 10.4 mph - N/A   Overcast
5:15 PM 60.8 °F - 37.4 °F 42% 29.78 in 10.0 mi WSW 10.4 mph 16.1 mph N/A   Overcast
5:35 PM 59.0 °F - 37.4 °F 45% 29.79 in 10.0 mi WSW 9.2 mph 16.1 mph N/A   Scattered Clouds
5:55 PM 57.2 °F - 37.4 °F 48% 29.80 in 10.0 mi WSW 9.2 mph 16.1 mph N/A   Scattered Clouds
6:15 PM 57.2 °F - 37.4 °F 48% 29.81 in 10.0 mi SW 6.9 mph - N/A   Mostly Cloudy
6:35 PM 57.2 °F - 39.2 °F 51% 29.83 in 10.0 mi SW 5.8 mph - N/A   Overcast
6:55 PM 57.2 °F - 39.2 °F 51% 29.84 in 10.0 mi SW 5.8 mph - N/A   Overcast
7:15 PM 55.4 °F - 41.0 °F 58% 29.85 in 10.0 mi SW 4.6 mph - N/A   Overcast
7:35 PM 55.4 °F - 41.0 °F 58% 29.86 in 10.0 mi SW 4.6 mph - N/A   Overcast
7:55 PM 55.4 °F - 41.0 °F 58% 29.86 in 10.0 mi WSW 6.9 mph - N/A   Mostly Cloudy
8:15 PM 53.6 °F - 41.0 °F 62% 29.88 in 10.0 mi SSW 3.5 mph - N/A   Scattered Clouds
8:35 PM 51.8 °F - 42.8 °F 71% 29.88 in 10.0 mi West 3.5 mph - N/A   Clear
8:55 PM 53.6 °F - 41.0 °F 62% 29.89 in 10.0 mi West 3.5 mph - N/A   Clear
9:15 PM 51.8 °F - 42.8 °F 71% 29.90 in 10.0 mi Calm Calm - N/A   Clear
9:35 PM 48.2 °F - 42.8 °F 82% 29.91 in 10.0 mi SSW 3.5 mph - N/A   Clear
9:55 PM 48.2 °F - 42.8 °F 82% 29.92 in 10.0 mi WSW 4.6 mph - N/A   Clear
10:15 PM 50.0 °F - 41.0 °F 71% 29.93 in 10.0 mi WNW 3.5 mph - N/A   Clear
10:35 PM 51.8 °F - 39.2 °F 62% 29.93 in 10.0 mi Calm Calm - N/A   Clear
10:55 PM 50.0 °F - 37.4 °F 62% 29.93 in 10.0 mi Calm Calm - N/A   Clear
11:15 PM 51.8 °F - 37.4 °F 58% 29.94 in 10.0 mi Calm Calm - N/A   Clear
11:35 PM 51.8 °F - 37.4 °F 58% 29.94 in 10.0 mi Calm Calm - N/A   Clear
11:55 PM 50.0 °F - 37.4 °F 62% 29.94 in 10.0 mi Calm Calm - N/A   Clear